Zurück zum Katalog

SL-12 DEB

LostHEO
NORAD 27992·DEBRIS·🇷🇺 Russia

Gestartet Sep 16, 1988 von Baikonur Cosmodrome

Loading…

Nächste Überflüge (nächste 24 Stunden)

TLE

VeraltetSource: Space-Track

Epoche: May 8, 2006, 10:11 UTC

1 27992U 88085AN  06128.42432250 -.00000008 +00000-0 +10000-3 0  9990
2 27992 064.2163 246.3969 5362408 024.4019 353.5677 04.49145847046349

Verfolge SL-12 DEB in Echtzeit mit AllMySat

Download on the App Store